Location: Newark
(59.4564°N, 26.6917°E)
Time: 10:40:48
(UTC+00:00)

Vanguard 3 - Pass Details

Date: 25 November 2019
Orbit: 508 x 3263 km, 33.3° (Epoch: 16 December)

Event Time Altitude Azimuth Distance (km) Brightness Sun altitude
Rises 16:01:53 0° 266° (W) 7,235 13.7 -18.0°
Reaches altitude 10° 16:10:16 10° 247° (WSW) 6,102 12.7 -19.1°
Maximum altitude 16:18:23 15° 222° (SW) 5,380 11.9 -20.1°
Drops below altitude 10° 16:25:37 10° 195° (SSW) 5,301 11.5 -21.0°
Sets 16:31:55 0° 174° (S) 5,764 11.5 -21.8°
